Regional Weather Roundup
Issued by NWS

Home | Current Version | Previous Version | Text Only | Print | Product List | Glossary Off
Versions: 1 2 3 4 5 6 7 8 9 10 11 12 13 14 15 16 17 18 19 20 21 22 23 24 25 26 27 28 29 30 31 32 33 34 35 36 37 38 39 40 41 42 43 44 45 46 47 48 49 50

587
ASUS44 KJAN 230503
RWRMS

MISSISSIPPI HOURLY WEATHER ROUNDUP
NATIONAL WEATHER SERVICE JACKSON MS
1200 AM CDT WED APR 23 2014

NOTE: "FAIR: INDICATES FEW OR NO CLOUDS BELOW 12,000 FEET WITH NO
SIGNIFICANT WEATHER AND/OR OBSTRUCTIONS TO VISIBILITY.

MSZ001>002-007>008-010>013-018>021-025>028-034>036-230600-
NORTHWEST MISSISSIPPI

CITY           SKY/WX    TMP DP  RH WIND       PRES   REMARKS
CLARKSDALE       N/A     59  50  72 CALM      29.96S
CLEVELAND      FAIR      62  51  67 NE5       29.95R
GREENWOOD      CLEAR     58  56  93 NE3       29.95R FOG
GREENVILLE     CLEAR     62  49  62 NE3       29.95R
GRENADA        FAIR      54  52  94 N3        29.95S
OLIVE BRANCH   CLEAR     54  45  71 CALM      29.97R
OXFORD         FAIR      54  45  71 CALM      29.98R
TUNICA         CLEAR     55  48  76 CALM      29.97R
$$

MSZ003>006-009-014>017-022>024-029>033-037>039-230600-
NORTHEAST MISSISSIPPI

CITY           SKY/WX    TMP DP  RH WIND       PRES   REMARKS
BELMONT        FAIR      62  45  54 N5        29.94R
COLUMBUS AFB   CLEAR     64  57  79 N8        29.93R
CORINTH        FAIR      54  48  82 W3        29.95S
GOLDN TRIANGLE CLEAR     63  54  72 N6        29.95R
STARKVILLE     FAIR      61  59  94 CALM      29.93S
TUPELO         CLEAR     62  47  57 N6        29.94S
$$

MSZ040-058-230600-
CENTRAL MISSISSIPPI

CITY           SKY/WX    TMP DP  RH WIND       PRES   REMARKS
JACKSON INTL   CLEAR     58  58 100 CALM      29.94S FOG
JACKSON HAWKNS CLEAR     64  60  87 CALM      29.95R
MERIDIAN KEY   FOG       58  57  97 S3        29.93S VSB 1/4
MERIDIAN NAS   PTCLDY    59  58  96 NW3       29.92S FOG
RAYMOND        HAZE      59  54  82 CALM      29.95S VSB<1/4
VICKSBURG      CLEAR     65  62  90 CALM      29.95R
$$

MSZ059>079-230600-
SOUTH MISSISSIPPI

CITY           SKY/WX    TMP DP  RH WIND       PRES   REMARKS
BROOKHAVEN     FAIR      59  59 100 CALM      29.97R
HATTIESBURG    CLEAR     60  59  96 CALM      29.94S FOG
MCCOMB         CLEAR     60  58  92 CALM      29.95S
NATCHEZ        CLEAR     61  57  88 CALM      29.96S
PINE BELT      CLEAR     59  55  88 CALM      29.94S
$$

MSZ080>082-230600-
COASTAL MISSISSIPPI

CITY           SKY/WX    TMP DP  RH WIND       PRES   REMARKS
BILOXI         CLEAR     67  65  93 N1        29.92S
PASCAGOULA     CLEAR     63  62  97 CALM      29.92S FOG
GULFPORT       CLEAR     69  63  81 N6        29.91F
$$



USA.gov is the U.S. government's official web portal to all federal, state and local government web resources and services.